Tracking 17147 objects as of 3-July-2015
HD Live streaming from Space Station

COSMOS 1015

Track COSMOS 1015 now!
10-day predictions
COSMOS 1015 is classified as:


NORAD ID: 10932
Int'l Code: 1978-056C
Perigee: 1,480.2 km
Apogee: 1,523.9 km
Inclination: 74.0 °
Period: 115.9 minutes
Semi major axis: 7873 km
RCS: 0.7013 m2 (medium)
Launch date: June 7, 1978
Source: Commonwealth of Independent States (former USSR) (CIS)
Your satellite tracking list
Your tracking list is empty





NASA's NSSDC Master Catalog

Two Line Element Set (TLE):
1 10932U 78056C   15183.55314911 -.00000029  00000-0 -97289-4 0  9990
2 10932 074.0265 124.6157 0027732 308.9100 165.4860 12.42764860681835

Source of the keplerian elements: AFSPC

N2YO: 308